Flag for Kuwait Weather past 2 weeks in Kuwait City, Kuwait

Now
113 °F

Sunny.


Feels Like: 108 °F
Forecast: 92 / 113 °F
Wind: 18 mph from North

Location: Kuwait International Airport

Current Time: Jul 26, 2014 at 12:21:15 PM

Latest Report: Jul 26, 2014 at 11:00 AM


Visibility: 10 mi

Pressure: 29.56 "Hg

Humidity: 10%

Dew point: 45 °F

Location of Kuwait CityLocation

Historic Weather in Kuwait City — Graph

°F

Kuwait City temperature yesterday

Maximum temperature yesterday: 117 °F (at 2:00 PM)
Minimum temperature yesterday: 91 °F (at 3:00 AM)
Average temperature yesterday: 106 °F

Past Weeks' High & Low Weather Summary

 TemperatureHumidityPressure
High120 °F (Jul 17, 2:00 PM)30% (Jul 21, 5:00 AM)29.56 "Hg (Jul 21, 5:00 AM)
Low82 °F (Jul 16, 4:00 AM)6% (Jul 13, 3:00 PM)29.36 "Hg (Jul 18, 4:00 PM)
Average104 °F13%29.48 "Hg
* Reported Jul 11 11:00 AM — Jul 26 11:00 AM, Kuwait City, Weather by CustomWeather, © 2014

Note: Actual official high and low records may vary slightly from our data, if they occured in-between our weather recording intervals... More about our weather records

Advertising

Kuwait City weather history for previous 24 hours

 ConditionsComfort  
Time TempWeatherWind HumidityBarometerVisibility
11:00 AM
Jul 26
113 °FSunny.18 mph10%29.56 "Hg10 mi
10:00 AM111 °FSunny.17 mph11%29.56 "Hg10 mi
9:00 AM106 °FSunny.16 mph13%29.56 "Hg10 mi
8:00 AM104 °FSunny.14 mph15%29.56 "Hg10 mi
7:00 AM102 °FSunny.10 mph16%29.53 "Hg5 mi
6:00 AM93 °FSunny.6 mph21%29.53 "Hg4 mi
5:00 AM91 °FClear.6 mph23%29.50 "Hg4 mi
4:00 AM97 °FClear.9 mph20%29.50 "Hg10 mi
3:00 AM100 °FClear.13 mph21%29.47 "Hg10 mi
2:00 AM100 °FClear.12 mph20%29.47 "Hg10 mi
1:00 AM102 °FClear.14 mph18%29.47 "Hg10 mi
12:00 AM104 °FClear.14 mph17%29.47 "Hg10 mi
11:00 PM
Jul 25
106 °FClear.16 mph15%29.47 "Hg10 mi
10:00 PM108 °FClear.14 mph15%29.47 "Hg10 mi
9:00 PM109 °FClear.14 mph14%29.47 "Hg10 mi
8:00 PM109 °FClear.9 mph12%29.45 "Hg10 mi
7:00 PM111 °FClear.10 mph11%29.45 "Hg10 mi
6:00 PM113 °FSunny.15 mph11%29.42 "Hg10 mi
5:00 PM117 °FSunny.14 mph10%29.42 "Hg10 mi
4:00 PM117 °FSunny.17 mph10%29.42 "Hg10 mi
3:00 PM117 °FSunny.15 mph10%29.42 "Hg10 mi
2:00 PM117 °FSunny.14 mph10%29.42 "Hg10 mi
1:00 PM113 °FSunny.15 mph11%29.45 "Hg10 mi
12:00 PM113 °FSunny.17 mph12%29.45 "Hg10 mi
Weather by CustomWeather, © 2014

See weather overviewHow to use our weather pages